CAPE
0 0 0 0 0 0 0 0 0 0 0 0 0 0 0 0 0 0 2 9 10 20 36 0 0 1 0 0 0 0 0 0 0 0 0 0 0 0
1 1 0 0 0 0 0 0 0 0 0 0 0 0 0 0 0 0 2 6 9 12 3 0 0 0 0 0 0 0 0 0 0 0 0 0 0 0
1 0 0 0 0 0 0 0 0 0 0 0 0 0 0 0 0 0 0 2 9 5 0 0 0 0 0 0 0 0 0 0 0 0 0 0 0 0
1 1 1 0 0 0 0 0 0 0 0 0 0 1 0 0 0 0 0 0 2 0 0 0 0 0 0 0 0 0 0 0 0 0 0 0 0 0
2 1 1 0 0 0 0 0 0 0 0 0 0 0 0 0 0 0 0 0 0 0 0 0 0 0 0 0 0 0 0 0 0 0 0 0 0 0
3 1 1 0 0 0 0 0 0 0 0 0 0 0 0 0 0 0 0 0 0 0 0 0 0 0 0 0 0 0 0 0 0 0 0 0 0 0
3 1 0 0 0 0 0 0 0 0 0 0 0 0 0 0 0 0 0 0 0 0 0 0 0 0 0 0 0 0 0 0 0 0 0 0 0 0
1 2 0 0 0 0 0 0 0 0 0 0 0 0 0 0 0 0 0 0 0 0 0 0 0 0 0 0 0 0 0 0 0 0 0 0 0 0
4 2 1 1 0 0 0 0 0 0 0 0 0 0 0 0 0 0 0 0 0 0 0 0 0 0 0 0 0 0 0 0 0 0 0 0 0 0
2 2 0 0 1 1 0 0 0 0 0 0 0 0 0 0 0 0 0 0 0 0 0 0 0 0 0 0 0 0 0 0 0 0 0 0 0 0
1 1 0 1 1 1 1 2 0 0 0 0 0 0 0 0 0 0 0 0 0 0 0 0 0 0 0 0 0 0 0 0 0 0 0 0 0 0
1 1 0 1 1 0 1 2 4 0 0 0 0 0 0 0 0 0 0 0 0 0 0 0 0 0 0 0 0 0 1 1 0 1 0 0 0 0
1 1 1 0 0 1 0 1 0 0 0 0 0 0 0 0 0 0 0 0 0 0 0 0 0 0 0 0 0 0 0 0 1 1 2 0 0 0
2 1 0 0 0 0 1 0 0 1 0 0 0 0 0 0 0 0 0 0 0 0 0 0 0 0 0 0 0 0 0 0 0 0 0 0 0 0
2 1 0 1 0 1 1 2 0 2 0 0 0 0 0 0 0 0 0 0 0 0 0 0 0 0 0 0 0 0 0 0 0 0 0 0 0 0
1 3 0 2 1 1 1 1 1 2 0 0 0 0 0 0 0 0 0 0 0 0 0 0 0 0 0 0 0 0 0 0 0 0 0 0 0 0
0 1 2 3 2 1 1 3 3 4 1 0 0 0 0 0 0 0 0 0 0 0 0 0 0 0 0 0 0 0 0 0 0 0 0 0 0 0
2 1 2 2 2 1 2 4 4 2 0 0 0 0 0 0 0 0 0 0 0 0 0 0 0 0 0 0 0 0 0 0 0 0 0 0 0 0
0 3 2 2 2 2 3 3 2 1 0 0 0 0 0 0 0 0 0 0 0 0 0 0 0 0 0 0 0 0 0 0 0 0 0 0 0 0
0 1 2 3 2 3 3 3 4 1 0 0 0 0 0 0 0 0 0 0 0 0 0 0 0 0 0 0 0 0 0 0 0 0 0 0 0 0
2 2 2 2 3 3 2 3 2 1 0 0 0 0 0 0 0 0 0 0 0 0 0 0 0 0 0 0 0 0 1 1 0 0 0 0 0 0
2 1 3 5 4 4 3 4 4 5 2 0 0 0 0 0 0 0 0 0 0 0 0 0 0 0 0 0 0 0 1 3 0 0 0 0 0 0
0 0 3 4 4 4 4 4 5 6 5 3 1 0 0 0 0 0 0 0 0 0 0 0 0 0 0 0 0 0 4 1 0 0 0 0 0 0
CIN
-0 -0 -0 -0 -0 -0 -0 -0 -0 -0 -0 -0 -0 -0 -0 -0 -0 -18 -9 -14 -11 -3 -1 -0 -0 -0 -0 -0 -0 -0 -0 -0 -0 -0 -0 -0 -0 -0
-0 -0 -0 -0 -0 -0 -0 -0 -0 -0 -0 -0 -0 -0 -0 -0 -0 -0 -10 -10 -12 -8 -16 -0 -0 -0 -0 -0 -0 -0 -0 -0 -0 -0 -0 -0 -0 -0
-0 -0 -0 -0 -0 -0 -0 -0 -0 -0 -0 -0 -0 -0 -0 -0 -0 -0 -2 -18 -17 -14 -1 -0 -0 -0 -0 -0 -0 -0 -0 -0 -0 -0 -0 -0 -0 -0
-0 -0 -0 -0 -0 -0 -0 -0 -0 -0 -0 -0 -0 -0 -0 -0 -0 -0 -0 -0 -25 -1 -0 -0 -0 -0 -0 -0 -0 -0 -0 -0 -0 -0 -0 -0 -0 -0
-0 -0 -0 -0 -0 -0 -0 -0 -0 -0 -0 -0 -0 -0 -0 -0 -0 -0 -0 -0 -0 -0 -0 -0 -0 -0 -0 -0 -0 -0 -0 -0 -0 -0 -0 -0 -0 -0
-0 -0 -0 -0 -0 -0 -0 -0 -0 -0 -0 -0 -0 -0 -0 -0 -0 -0 -0 -0 -0 -0 -0 -0 -0 -0 -0 -0 -0 -0 -0 -0 -0 -0 -0 -0 -0 -0
-0 -0 -0 -0 -0 -0 -0 -0 -0 -0 -0 -0 -0 -0 -0 -0 -0 -0 -0 -0 -0 -0 -0 -0 -0 -0 -0 -0 -0 -0 -0 -0 -0 -0 -0 -0 -0 -0
-0 -3 -0 -0 -0 -0 -0 -0 -0 -0 -0 -0 -0 -0 -0 -0 -0 -0 -0 -0 -0 -0 -0 -0 -0 -0 -0 -0 -0 -0 -0 -0 -0 -0 -0 -0 -0 -0
-0 -0 -0 -0 -0 -0 -0 -0 -0 -0 -0 -0 -0 -0 -0 -0 -0 -0 -0 -0 -0 -0 -0 -0 -0 -0 -0 -0 -0 -0 -0 -0 -0 -0 -0 -0 -0 -0
-0 -0 -0 -0 -0 -0 -0 -0 -0 -0 -0 -0 -0 -0 -0 -0 -0 -0 -0 -0 -0 -0 -0 -0 -0 -0 -0 -0 -0 -0 -0 -0 -0 -0 -0 -0 -0 -0
-0 -0 -0 -0 -0 -0 -0 -0 -0 -0 -0 -0 -0 -0 -0 -0 -0 -0 -0 -0 -0 -0 -0 -0 -0 -0 -0 -0 -0 -0 -0 -0 -0 -0 -0 -0 -0 -0
-0 -0 -0 -0 -0 -0 -0 -0 -0 -0 -0 -0 -0 -0 -0 -0 -0 -0 -0 -0 -0 -0 -0 -0 -0 -0 -0 -0 -0 -0 -0 -0 -0 -0 -0 -0 -0 -0
-0 -0 -0 -0 -0 -0 -0 -0 -0 -0 -0 -0 -0 -0 -0 -0 -0 -0 -0 -0 -0 -0 -0 -0 -0 -0 -0 -0 -0 -0 -0 -0 -0 -0 -0 -0 -0 -0
-0 -0 -0 -0 -0 -0 -0 -0 -0 -0 -0 -0 -0 -0 -0 -0 -0 -0 -0 -0 -0 -0 -0 -0 -0 -0 -0 -0 -0 -0 -0 -0 -0 -0 -0 -0 -0 -0
-0 -0 -0 -0 -0 -0 -0 -0 -0 -0 -0 -0 -0 -0 -0 -0 -0 -0 -0 -0 -0 -0 -0 -0 -0 -0 -0 -0 -0 -0 -0 -0 -0 -0 -0 -0 -0 -0
-0 -0 -0 -0 -0 -0 -0 -0 -0 -0 -0 -0 -0 -0 -0 -0 -0 -0 -0 -0 -0 -0 -0 -0 -0 -0 -0 -0 -0 -0 -0 -0 -0 -0 -0 -0 -0 -0
-0 -0 -0 -0 -0 -0 -0 -0 -0 -0 -0 -0 -0 -0 -0 -0 -0 -0 -0 -0 -0 -0 -0 -0 -0 -0 -0 -0 -0 -0 -0 -0 -0 -0 -0 -0 -0 -0
-0 -0 -0 -0 -0 -0 -0 -0 -0 -0 -0 -0 -0 -0 -0 -0 -0 -0 -0 -0 -0 -0 -0 -0 -0 -0 -0 -0 -0 -0 -0 -0 -0 -0 -0 -0 -0 -0
-0 -0 -0 -0 -0 -0 -0 -0 -0 -0 -0 -0 -0 -0 -0 -0 -0 -0 -0 -0 -0 -0 -0 -0 -0 -0 -0 -0 -0 -0 -0 -0 -0 -0 -0 -0 -0 -0
-0 -0 -0 -0 -0 -0 -0 -0 -0 -0 -0 -0 -0 -0 -0 -0 -0 -0 -0 -0 -0 -0 -0 -0 -0 -0 -0 -0 -0 -0 -0 -0 -0 -0 -0 -0 -0 -0
-0 -0 -0 -0 -0 -0 -0 -0 -0 -0 -0 -0 -0 -0 -0 -0 -0 -0 -0 -0 -0 -0 -0 -0 -0 -0 -0 -0 -0 -0 -0 -0 -0 -0 -0 -0 -0 -0
-0 -0 -0 -0 -0 -0 -0 -0 -0 -0 -0 -0 -0 -0 -0 -0 -0 -0 -0 -0 -0 -0 -0 -0 -0 -0 -0 -0 -0 -0 -0 -0 -0 -0 -0 -0 -0 -0
-0 -0 -0 -0 -0 -0 -0 -0 -0 -0 -0 -0 -0 -0 -0 -0 -0 -0 -0 -0 -0 -0 -0 -0 -0 -0 -0 -0 -0 -0 -0 -0 -0 -0 -0 -0 -0 -0
Wind_Speed
48 48 43 39 36 36 31 31 28 29 31 32 29 29 24 17 14 12 9 7 5 4 3 4 5 7 9 10 12 14 16 17 19 20 22 24 26 28
46 50 44 40 35 37 32 31 31 28 28 32 31 26 23 19 15 12 10 8 6 4 4 3 3 5 7 8 10 12 14 16 17 19 21 23 25 27
47 49 46 40 39 39 34 32 32 30 28 28 29 26 24 21 16 13 11 9 7 6 5 3 1 2 4 6 8 10 12 14 16 18 20 22 25 27
44 49 51 44 41 39 36 32 32 31 27 25 27 27 25 21 17 15 12 11 9 8 6 4 2 0 2 4 6 8 10 12 15 17 18 20 23 26
44 49 51 47 43 40 39 34 34 31 29 25 25 26 25 23 19 17 14 13 11 9 7 6 4 2 1 3 4 6 9 11 13 15 17 19 22 25
46 48 50 51 47 41 42 36 33 31 29 26 24 24 25 24 21 19 17 17 13 10 8 7 5 4 2 2 3 5 7 9 11 13 15 18 21 24
52 50 50 50 50 44 42 37 34 33 30 27 26 26 26 24 22 20 18 17 17 14 10 8 8 5 4 3 3 4 6 8 10 12 14 16 19 23
55 49 48 53 52 48 41 37 33 32 31 29 27 27 27 25 22 21 19 18 16 16 13 10 9 7 6 5 4 4 5 7 9 10 13 15 17 22
55 50 49 53 54 49 45 38 37 33 30 29 29 30 27 24 22 21 19 18 17 15 13 12 11 11 9 7 5 4 4 6 7 9 12 14 17 21
51 54 56 53 51 48 45 42 41 38 34 31 27 26 25 22 22 21 18 16 16 13 10 14 13 12 10 8 6 5 4 5 6 8 11 14 16 20
55 55 53 52 53 50 45 46 42 38 33 30 28 25 23 20 20 18 18 15 16 17 15 14 13 14 12 11 9 6 5 5 6 7 9 13 15 18
54 51 52 52 52 46 46 45 43 39 33 29 27 24 20 20 19 19 18 17 16 19 17 14 13 11 15 13 9 7 6 5 5 6 9 11 14 18
51 51 50 49 50 50 48 48 45 38 33 30 27 26 24 21 20 20 18 18 17 18 12 11 12 11 15 14 12 8 7 6 6 7 8 10 14 18
50 47 48 45 46 50 49 44 41 37 35 32 29 28 25 23 21 21 19 19 16 17 9 10 12 10 11 13 14 10 7 8 7 8 8 11 15 17
51 45 47 46 45 49 50 43 39 37 37 35 32 28 25 23 20 20 17 15 15 15 9 10 11 8 9 11 12 11 9 8 7 6 8 11 14 15
50 47 45 44 44 48 48 41 39 39 39 36 31 27 23 22 21 19 18 17 16 16 13 12 10 8 10 11 11 10 9 10 5 6 9 12 13 14
50 45 43 44 43 43 45 42 40 37 38 35 31 27 25 22 22 19 19 18 18 16 14 13 11 11 12 10 12 10 6 10 6 6 10 13 13 13
51 48 45 40 40 44 44 42 38 39 38 34 32 27 26 24 22 20 20 19 18 16 14 13 10 10 12 15 14 8 8 8 6 6 10 12 13 13
50 48 45 42 43 44 44 44 42 40 36 33 31 28 27 25 23 22 20 19 18 17 16 13 12 11 13 16 14 10 7 6 5 9 11 12 14 12
50 48 47 45 43 43 45 43 40 36 39 34 31 28 27 26 24 23 22 20 18 16 15 14 13 13 14 14 12 12 9 4 6 9 11 12 13 13
48 47 44 44 41 39 42 40 39 37 36 34 33 31 29 27 26 24 22 21 18 17 17 17 15 12 10 9 11 7 8 6 10 9 9 10 12 11
49 46 43 41 39 37 34 33 34 36 35 37 37 33 31 30 28 24 22 20 19 18 17 16 12 11 12 13 10 7 7 7 10 8 8 10 11 11
48 46 43 43 39 37 34 31 33 34 35 37 37 35 33 31 29 26 24 22 21 18 17 15 14 12 14 13 11 8 7 8 8 9 10 10 10 12
Wind_Direction
221 218 210 212 213 214 211 209 205 219 224 228 229 230 228 219 215 220 217 198 185 170 145 109 63 47 49 45 44 43 40 38 37 35 32 29 26 24
221 219 213 212 212 214 212 212 220 224 225 229 233 228 226 227 213 214 212 203 201 216 168 130 68 41 43 40 39 40 34 34 33 32 30 27 25 23
222 216 215 207 212 214 213 214 219 226 225 231 234 227 223 225 218 220 213 220 227 198 183 171 97 38 36 37 36 36 31 29 29 29 27 25 22 21
224 218 217 212 212 214 214 213 219 224 225 228 231 228 226 221 214 220 222 232 229 204 204 209 257 355 29 35 35 28 23 24 23 24 25 23 20 19
231 218 216 215 212 214 215 216 219 223 227 231 233 230 231 226 216 232 228 236 243 216 211 218 252 235 326 13 22 21 17 18 19 22 22 19 17 17
231 221 218 215 215 212 215 215 218 221 224 229 232 227 228 229 221 220 231 246 241 235 235 246 250 247 247 325 4 6 11 14 15 17 18 16 15 15
228 223 218 217 217 213 214 215 216 220 223 228 231 231 231 226 216 224 230 241 252 252 249 250 263 258 277 296 331 352 2 7 10 11 13 13 14 12
227 223 221 218 218 216 213 213 213 217 225 229 232 231 231 230 226 224 231 234 241 254 247 245 254 256 272 289 302 332 348 357 3 6 8 10 12 9
228 221 220 218 216 218 219 218 221 217 220 225 232 234 232 227 224 228 228 225 235 257 242 252 261 265 273 283 270 294 327 346 354 360 3 6 8 7
228 221 218 217 216 215 219 220 222 225 229 232 235 237 236 224 220 223 223 231 258 256 239 255 267 268 274 278 266 273 300 328 342 352 359 2 5 4
224 219 217 217 215 214 218 220 223 226 231 234 237 237 235 225 223 225 230 222 247 258 251 267 275 279 284 281 282 262 279 308 328 343 355 359 2 4
223 223 216 218 214 213 217 219 221 224 224 229 234 237 231 225 215 223 225 226 245 262 259 255 277 285 297 292 278 274 286 287 314 331 346 356 1 1
222 220 217 217 213 215 219 222 225 224 222 227 231 234 235 232 231 236 233 237 241 267 267 242 273 273 296 318 314 290 293 309 316 326 340 355 358 358
222 217 217 215 213 215 218 223 220 220 222 225 228 233 233 233 236 242 241 249 250 272 244 223 284 266 277 300 313 319 304 310 315 327 342 353 356 358
222 222 218 218 218 216 218 218 218 220 221 224 228 233 234 234 237 241 245 249 258 272 248 251 270 273 281 296 307 319 319 308 316 323 336 343 350 357
223 226 217 218 219 218 215 216 221 220 222 225 228 233 233 231 234 234 239 239 252 265 272 274 268 274 286 300 309 312 317 328 304 322 335 344 352 357
221 221 216 219 219 217 215 219 224 223 223 225 225 228 229 231 234 232 241 239 253 253 260 273 280 290 302 299 307 310 306 325 335 333 340 342 349 354
217 210 212 214 215 215 215 218 223 221 222 221 225 226 227 228 229 232 239 239 244 248 253 260 259 277 296 310 315 301 310 321 336 345 343 341 345 353
209 211 214 216 218 217 219 219 222 222 221 221 222 225 230 232 228 231 234 239 247 251 253 253 246 254 272 288 309 311 294 311 334 337 337 342 346 353
212 213 215 217 219 221 220 221 222 224 221 221 223 223 226 228 230 232 235 237 242 250 252 248 243 244 261 278 296 301 306 289 313 328 333 343 353 1
213 213 216 218 220 220 219 222 220 221 221 223 226 226 227 229 234 237 239 241 243 249 247 247 252 264 281 296 301 297 305 313 323 323 332 339 344 352
213 214 217 216 216 217 219 223 223 226 226 225 229 230 231 235 238 234 234 233 241 248 255 263 256 254 268 275 275 279 291 313 330 333 340 344 349 346
214 215 217 217 219 218 222 227 229 229 230 229 231 232 233 236 240 240 239 242 247 248 248 252 250 251 269 273 274 267 282 297 311 319 329 345 357 1